Weather History for Truth Or Consequences, NM

Change the Weather History Date:

Thursday, March 8, 2012

  Actual Average Record
Temperature  
Mean Temperature 41 °F -  
Max Temperature 50 °F 64 °F 73 °F (1997)
Min Temperature 32 °F 37 °F 28 °F (2008)
Degree Days  
Heating Degree Days 24    
Month to date heating degree days  
Since 1 July heating degree days  
Cooling Degree Days 0    
Month to date cooling degree days  
Year to date cooling degree days  
Moisture  
Dew Point 22 °F    
Average Humidity 51    
Maximum Humidity 70    
Minimum Humidity 31    
Precipitation  
Precipitation T in - 0.11 in (2001)
Month to date precipitation T  
Year to date precipitation 0.17  
Sea Level Pressure  
Sea Level Pressure 30.13 in    
Wind  
Wind Speed 11 mph (NNE)    
Max Wind Speed 28 mph    
Max Gust Speed 40 mph    
Visibility 10 miles    
Events      
T = Trace of Precipitation, MM = Missing Value Source: NWS Daily Summary

Daily Weather History Graph

Daily Weather History Graph

Search for Another Location

Airport:

Trip Planner

Search our weather history database for the weather conditions in past years. The results will help you decide how hot, cold, wet, or windy it might be!

Date:

Astronomy

Mar. 08, 2012 Rise Set
Actual Time 6:27 AM MST 6:12 PM MST
Civil Twilight 6:03 AM MST 6:36 PM MST
Nautical Twilight 5:34 AM MST 7:05 PM MST
Astronomical Twilight 5:05 AM MST 7:34 PM MST
Moon 6:57 PM MST (3/8) 6:17 AM MST (3/8)
Length of Visible Light 12h 33m
Length of Day
11h 44m
Full, 100% of the Moon is Illuminated
Mar 8
Full
Mar 14
Last Quarter
Mar 22
New
Mar 30
First Quarter
Apr 6
Full

Hourly Weather History & Observations

Time (MST) Temp. Windchill Dew Point Humidity Pressure Visibility Wind Dir Wind Speed Gust Speed Precip Events Conditions
12:53 AM 39.9 °F 34.5 °F 21.0 °F 47% 29.80 in 10.0 mi NNW 8.1 mph - N/A   Clear
1:53 AM 37.0 °F 31.0 °F 21.9 °F 54% 29.81 in 10.0 mi NW 8.1 mph - N/A   Clear
2:53 AM 36.0 °F 31.1 °F 21.9 °F 57% 29.82 in 10.0 mi North 5.8 mph - N/A   Clear
3:53 AM 34.0 °F 31.0 °F 21.0 °F 59% 29.84 in 10.0 mi North 3.5 mph - N/A   Clear
4:53 AM 32.0 °F 25.6 °F 19.0 °F 59% 29.86 in 10.0 mi West 6.9 mph - N/A   Mostly Cloudy
5:53 AM 36.0 °F 29.0 °F 19.0 °F 50% 29.88 in 10.0 mi NE 9.2 mph - N/A   Clear
6:53 AM 35.1 °F 32.2 °F 19.9 °F 54% 29.93 in 10.0 mi Variable 3.5 mph - N/A   Clear
7:53 AM 39.9 °F 32.5 °F 21.9 °F 49% 29.97 in 10.0 mi North 12.7 mph - N/A   Clear
8:53 AM 43.0 °F 36.8 °F 21.9 °F 43% 30.03 in 10.0 mi NNE 11.5 mph - N/A   Clear
9:53 AM 45.0 °F - 16.0 °F 31% 30.07 in 10.0 mi Calm Calm - N/A   Clear
10:53 AM 50.0 °F - 21.9 °F 33% 30.09 in 10.0 mi NE 17.3 mph 25.3 mph N/A   Mostly Cloudy
11:53 AM 43.0 °F 34.0 °F 28.0 °F 56% 30.15 in 10.0 mi ENE 21.9 mph 29.9 mph N/A   Overcast
12:53 PM 39.9 °F 29.7 °F 30.0 °F 68% 30.20 in 10.0 mi North 23.0 mph 33.4 mph N/A   Overcast
1:53 PM 42.1 °F 33.9 °F 27.0 °F 55% 30.21 in 10.0 mi North 17.3 mph 29.9 mph N/A   Mostly Cloudy
2:53 PM 46.9 °F - 25.0 °F 42% 30.20 in 10.0 mi North 23.0 mph 32.2 mph 0.00 in   Overcast
3:53 PM 46.0 °F 38.0 °F 21.9 °F 39% 30.24 in 10.0 mi North 21.9 mph 31.1 mph N/A   Overcast
4:53 PM 45.0 °F 36.2 °F 19.9 °F 37% 30.27 in 10.0 mi NNE 24.2 mph 33.4 mph N/A   Clear
5:53 PM 41.0 °F 31.4 °F 19.9 °F 43% 30.31 in 10.0 mi NNE 21.9 mph 34.5 mph N/A   Clear
6:53 PM 39.0 °F 29.6 °F 21.0 °F 49% 30.36 in 10.0 mi NNE 18.4 mph 27.6 mph N/A   Clear
7:53 PM 36.0 °F 26.3 °F 21.0 °F 55% 30.39 in 10.0 mi NNE 16.1 mph 23.0 mph N/A   Clear
8:53 PM 36.0 °F 27.1 °F 21.0 °F 55% 30.39 in 10.0 mi NNE 13.8 mph 23.0 mph N/A   Clear
9:53 PM 35.1 °F 26.9 °F 19.9 °F 54% 30.40 in 10.0 mi NNE 11.5 mph - N/A   Clear
10:53 PM 34.0 °F 26.6 °F 19.0 °F 54% 30.40 in 10.0 mi North 9.2 mph - N/A   Clear
11:53 PM 35.1 °F 27.9 °F 17.1 °F 48% 30.41 in 10.0 mi NNE 9.2 mph - N/A   Clear